Meath Environmental Platform

Observations for Trim Patrick St

Time AQI Temp °C Hum % Pres Pa CO μg/m³ H₂S μg/m³ NO μg/m³ NO₂ μg/m³ O₃ μg/m³ SO₂ μg/m³ PM1 μg/m³ PM2.5 μg/m³ PM10 μg/m³
Thursday 30 July 2026
23:27 3 15.2 60 74,202 0.84 14.26 1.9 25.18 37.1 1.26 44.86 68.97 81.43
23:26 3 15.2 62 74,172 0.8 13.59 2.05 16.65 46.85 1.35 44.86 66.25 79.15
23:25 3 15.2 61 74,161 0.79 14.68 1.86 14.09 47.98 0.88 41.43 60.45 65.42
23:24 3 15.3 62 74,141 0.78 15.49 2.15 26.71 43.98 1.22 44.86 66.15 76.42
23:23 3 15.3 61 74,108 0.75 15.7 1.86 18.13 43.85 1.53 43.14 66.32 76.88
23:22 3 15.4 60 74,076 0.72 15.1 1.62 31.57 43.02 0.91 43.14 61.5 69.55
23:19 3 15.4 61 73,944 0.66 14.11 1.5 24.06 46.81 1.19 37.14 56.01 63.76
23:18 3 15.4 62 73,887 0.64 13.88 1.66 27.95 42.32 0.52 34.57 47.78 59.37
23:16 3 15.5 61 73,726 0.6 13.83 1.88 21.61 48.54 0.81 36.29 53.05 63.76
23:15 3 15.6 61 73,644 0.57 12.74 1.91 31.66 41.54 0.67 32.86 50.15 60.6
23:13 3 15.6 60 73,508 0.5 11.88 1.89 20.33 49.03 0.7 29.43 42.15 53.54
23:08 3 15.7 61 73,107 0.31 11.04 1.46 25.17 50.81 0 21.72 33.15 38.25
23:07 3 15.7 60 72,992 0.29 9.9 1.36 23.05 46.57 0 20 31.06 35.22
23:06 3 15.8 60 72,899 0.28 9.98 1.75 25.91 47.3 0 20.86 30.99 36.74
23:05 3 15.8 60 72,809 0.27 9.82 1.69 19.63 47.43 0 18.29 29.6 36.11
23:04 3 15.8 60 72,721 0.27 10.08 2.12 27.63 47.92 0 20 31.07 33.57
23:03 3 15.8 60 72,634 0.22 8.86 2.34 24.05 51.93 0 17.43 28.02 29.22
23:02 3 15.9 59 72,546 0.2 7.84 2.28 12.97 54.53 0 15.71 25.18 25.25
23:01 3 15.9 60 72,465 0.17 8.67 1.79 18.69 51.67 0 13.14 22.91 25.2
23:00 3 15.9 59 72,357 0.17 9.41 1.81 20.48 50.05 0 11.43 18.46 20.31